Greenville Downtown, SC

10:12 PM EST on November 23, 2017 (GMT -0500)
Greenville Downtown

Weather History for KGMU - May, 2013

Change the Weather History Date:

Friday, May 24, 2013

  Actual Average Record
Temperature  
Mean Temperature 68 °F -  
Max Temperature 75 °F 79 °F 90 °F (2004)
Min Temperature 60 °F 59 °F 50 °F (2002)
Cooling Degree Days 2    
Growing Degree Days 18 (Base 50)    
Moisture  
Dew Point 45 °F    
Average Humidity 47    
Maximum Humidity 80    
Minimum Humidity 23    
Precipitation  
Precipitation 0.00 in - - ()
Sea Level Pressure  
Sea Level Pressure 30.05 in    
Wind  
Wind Speed 8 mph (North)    
Max Wind Speed 22 mph    
Max Gust Speed 29 mph    
Visibility 10 miles    
Events      
Averages and records for this station are not official NWS values.
T = Trace of Precipitation, MM = Missing Value Source: NWS Daily Summary

Daily Weather History Graph

Daily Weather History Graph

Search for Another Location

Airport or City:

Trip Planner

Search our weather history database for the weather conditions in past years. The results will help you decide how hot, cold, wet, or windy it might be!

Date:

Astronomy

May. 24, 2013 Rise Set
Actual Time 6:20 AM EDT 8:32 PM EDT
Civil Twilight 5:51 AM EDT 9:01 PM EDT
Nautical Twilight 5:16 AM EDT 9:36 PM EDT
Astronomical Twilight 4:38 AM EDT 10:14 PM EDT
Moon 8:14 PM EDT 5:49 AM EDT
Length of Visible Light 15h 09m
Length of Day
14h 12m
Full, 100% of the Moon is Illuminated
May 24
Full
May 25
Full
May 31
Last Quarter
Jun 8
New
Jun 16
First Quarter

Hourly Weather History & Observations

Time (EDT) Temp. Dew Point Humidity Pressure Visibility Wind Dir Wind Speed Gust Speed Precip Events Conditions
12:53 AM 69.1 °F 55.0 °F 61% 29.91 in 10.0 mi North 8.1 mph - N/A   Partly Cloudy
1:53 AM 66.9 °F 55.0 °F 66% 29.92 in 10.0 mi Calm Calm - N/A   Clear
2:53 AM 64.9 °F 54.0 °F 68% 29.92 in 10.0 mi North 3.5 mph - N/A   Clear
3:53 AM 63.0 °F 54.0 °F 72% 29.91 in 10.0 mi Calm Calm - N/A   Clear
4:53 AM 62.1 °F 54.0 °F 75% 29.93 in 10.0 mi WNW 3.5 mph - N/A   Clear
5:53 AM 60.1 °F 54.0 °F 80% 29.93 in 10.0 mi NNW 3.5 mph - N/A   Clear
6:53 AM 62.1 °F 53.1 °F 72% 29.95 in 10.0 mi NW 4.6 mph - N/A   Clear
7:53 AM 64.9 °F 54.0 °F 68% 29.98 in 10.0 mi NNE 3.5 mph - N/A   Clear
8:53 AM 68.0 °F 50.0 °F 52% 30.00 in 10.0 mi WNW 9.2 mph - N/A   Clear
9:53 AM 71.1 °F 50.0 °F 47% 30.03 in 10.0 mi North 13.8 mph 23.0 mph N/A   Clear
10:53 AM 71.1 °F 48.9 °F 45% 30.06 in 10.0 mi North 11.5 mph 20.7 mph N/A   Scattered Clouds
11:53 AM 72.0 °F 48.0 °F 43% 30.09 in 10.0 mi North 17.3 mph 26.5 mph N/A   Clear
12:53 PM 72.0 °F 45.0 °F 38% 30.10 in 10.0 mi North 13.8 mph 20.7 mph N/A   Clear
1:53 PM 73.9 °F 39.9 °F 29% 30.10 in 10.0 mi North 21.9 mph 28.8 mph N/A   Clear
2:53 PM 75.0 °F 37.9 °F 26% 30.10 in 10.0 mi NNW 11.5 mph 21.9 mph N/A   Clear
3:53 PM 75.0 °F 36.0 °F 24% 30.11 in 10.0 mi North 13.8 mph 25.3 mph N/A   Clear
4:53 PM 75.0 °F 36.0 °F 24% 30.11 in 10.0 mi North 13.8 mph - N/A   Clear
5:53 PM 73.9 °F 34.0 °F 23% 30.12 in 10.0 mi North 15.0 mph 24.2 mph N/A   Clear
6:53 PM 72.0 °F 33.1 °F 24% 30.13 in 10.0 mi North 13.8 mph - N/A   Clear
7:53 PM 69.1 °F 35.1 °F 29% 30.14 in 10.0 mi North 16.1 mph - N/A   Clear
8:53 PM 64.9 °F 36.0 °F 34% 30.16 in 10.0 mi North 12.7 mph - N/A   Clear
9:53 PM 63.0 °F 37.9 °F 40% 30.19 in 10.0 mi NNE 8.1 mph - N/A   Clear
10:53 PM 62.1 °F 37.0 °F 39% 30.21 in 10.0 mi North 5.8 mph - N/A   Clear
11:53 PM 62.1 °F 37.0 °F 39% 30.22 in 10.0 mi NNW 8.1 mph - N/A   Clear